TimeCEST,TemperatureF,Dew PointF,Humidity,Sea Level PressureIn,VisibilityMPH,Wind Direction,Wind SpeedMPH,Gust SpeedMPH,PrecipitationIn,Events,Conditions,WindDirDegrees,DateUTC
12:00 AM,75.2,64.4,69,30.09,-9999.0,Calm,Calm,-,N/A,,Clear,0,2013-07-14 22:00:00
12:30 AM,75.2,64.4,69,30.09,-9999.0,Variable,2.3,-,N/A,,Clear,0,2013-07-14 22:30:00
1:00 AM,73.4,62.6,69,30.09,-9999.0,NE,2.3,-,N/A,,Clear,40,2013-07-14 23:00:00
1:30 AM,71.6,64.4,78,30.09,-9999.0,ENE,2.3,-,N/A,,Clear,60,2013-07-14 23:30:00
2:00 AM,70,62,70,30.09,9,NNE,2.2,,,,Clear,30,2013-07-15 00:00:00
2:00 AM,71.6,64.4,78,30.09,-9999.0,Variable,2.3,-,N/A,,Clear,0,2013-07-15 00:00:00
2:30 AM,71.6,62.6,73,30.09,-9999.0,Variable,2.3,-,N/A,,Clear,0,2013-07-15 00:30:00
3:00 AM,71.6,64.4,78,30.09,-9999.0,North,3.5,-,N/A,,Clear,360,2013-07-15 01:00:00
3:30 AM,69.8,62.6,78,30.09,-9999.0,NNE,2.3,-,N/A,,Clear,30,2013-07-15 01:30:00
4:00 AM,69.8,62.6,78,30.09,-9999.0,Calm,Calm,-,N/A,,Clear,0,2013-07-15 02:00:00
4:30 AM,69.8,62.6,78,30.09,-9999.0,Calm,Calm,-,N/A,,Clear,0,2013-07-15 02:30:00
5:00 AM,68,61,71,30.09,9,NNW,2.3,,,,Clear,330,2013-07-15 03:00:00
5:00 AM,68.0,62.6,83,30.09,-9999.0,Calm,Calm,-,N/A,,Clear,0,2013-07-15 03:00:00
5:30 AM,69.8,62.6,78,30.06,-9999.0,Calm,Calm,-,N/A,,Clear,0,2013-07-15 03:30:00
6:00 AM,68.0,62.6,83,30.06,-9999.0,Calm,Calm,-,N/A,,Clear,0,2013-07-15 04:00:00
6:30 AM,68.0,62.6,83,30.09,6.2,Calm,Calm,-,N/A,,Partly Cloudy,0,2013-07-15 04:30:00
7:00 AM,68.0,64.4,88,30.09,6.2,Calm,Calm,-,N/A,,Partly Cloudy,0,2013-07-15 05:00:00
7:30 AM,68.0,64.4,88,30.09,6.2,Calm,Calm,-,N/A,,Partly Cloudy,0,2013-07-15 05:30:00
8:00 AM,71,64,74,30.10,14,NNE,4.5,,,,Scattered Clouds,30,2013-07-15 06:00:00
8:00 AM,71.6,66.2,83,30.09,6.2,Variable,1.2,-,N/A,,Partly Cloudy,0,2013-07-15 06:00:00
8:30 AM,75.2,66.2,73,30.09,6.2,Variable,1.2,-,N/A,,Partly Cloudy,0,2013-07-15 06:30:00
9:00 AM,78.8,66.2,65,30.09,6.2,Calm,Calm,-,N/A,,Partly Cloudy,0,2013-07-15 07:00:00
9:30 AM,82.4,68.0,62,30.09,-9999.0,Calm,Calm,-,N/A,,Clear,0,2013-07-15 07:30:00
10:00 AM,84.2,64.4,51,30.09,-9999.0,Variable,1.2,-,N/A,,Clear,0,2013-07-15 08:00:00
10:30 AM,87.8,62.6,43,30.12,-9999.0,Variable,1.2,-,N/A,,Clear,0,2013-07-15 08:30:00
11:00 AM,88,66,38,30.12,19,SW,4.5,,,,,230,2013-07-15 09:00:00
11:00 AM,87.8,68.0,52,30.12,-9999.0,North,1.2,-,N/A,,Clear,360,2013-07-15 09:00:00
11:30 AM,87.8,64.4,46,30.12,6.2,WSW,4.6,-,N/A,,Partly Cloudy,240,2013-07-15 09:30:00
12:00 PM,89.6,62.6,40,30.12,6.2,SW,3.5,-,N/A,,Partly Cloudy,230,2013-07-15 10:00:00
12:30 PM,89.6,59.0,36,30.12,6.2,SW,5.8,-,N/A,,Partly Cloudy,230,2013-07-15 10:30:00
1:00 PM,91.4,57.2,31,30.12,6.2,WSW,6.9,-,N/A,,Partly Cloudy,240,2013-07-15 11:00:00
1:30 PM,93.2,57.2,30,30.09,6.2,SW,12.7,-,N/A,,Partly Cloudy,230,2013-07-15 11:30:00
2:00 PM,90,60,26,30.11,19,SSW,15.0,,,,Scattered Clouds,210,2013-07-15 12:00:00
2:00 PM,89.6,57.2,33,30.09,6.2,SSW,13.8,-,N/A,,Partly Cloudy,210,2013-07-15 12:00:00
2:30 PM,91.4,57.2,31,30.09,6.2,SW,13.8,-,N/A,,Partly Cloudy,220,2013-07-15 12:30:00
3:00 PM,91.4,57.2,31,30.09,6.2,SSW,12.7,-,N/A,,Partly Cloudy,210,2013-07-15 13:00:00
3:30 PM,93.2,55.4,28,30.09,6.2,SSW,11.5,-,N/A,,Partly Cloudy,210,2013-07-15 13:30:00
4:00 PM,93.2,53.6,26,30.09,6.2,SW,10.4,-,N/A,,Partly Cloudy,220,2013-07-15 14:00:00
4:30 PM,93.2,57.2,30,30.09,6.2,SSW,11.5,-,N/A,,Partly Cloudy,210,2013-07-15 14:30:00
5:00 PM,92,58,22,30.09,19,SSW,26.8,,,,Scattered Clouds,200,2013-07-15 15:00:00
5:00 PM,91.4,57.2,31,30.09,6.2,SSW,12.7,-,N/A,,Partly Cloudy,210,2013-07-15 15:00:00
5:30 PM,91.4,59.0,34,30.09,6.2,SSW,11.5,-,N/A,,Partly Cloudy,210,2013-07-15 15:30:00
6:00 PM,89.6,60.8,38,30.09,6.2,SSW,11.5,-,N/A,,Partly Cloudy,210,2013-07-15 16:00:00
6:30 PM,89.6,62.6,40,30.06,6.2,SSW,11.5,-,N/A,,Partly Cloudy,210,2013-07-15 16:30:00
7:00 PM,87.8,62.6,43,30.06,6.2,SSW,9.2,-,N/A,,Partly Cloudy,210,2013-07-15 17:00:00
7:30 PM,87.8,66.2,49,30.06,6.2,SSW,9.2,-,N/A,,Partly Cloudy,210,2013-07-15 17:30:00
8:00 PM,86,66,41,30.09,19,SSW,24.6,,,,Scattered Clouds,200,2013-07-15 18:00:00
8:00 PM,86.0,68.0,55,30.06,6.2,SSW,9.2,-,N/A,,Partly Cloudy,210,2013-07-15 18:00:00
8:30 PM,84.2,66.2,55,30.09,-9999.0,South,8.1,-,N/A,,Clear,190,2013-07-15 18:30:00
9:00 PM,84.2,68.0,58,30.09,6.2,South,6.9,-,N/A,,Partly Cloudy,180,2013-07-15 19:00:00
9:30 PM,82.4,69.8,66,30.09,6.2,South,5.8,-,N/A,,Partly Cloudy,190,2013-07-15 19:30:00
10:00 PM,82.4,68.0,62,30.09,6.2,South,2.3,-,N/A,,Partly Cloudy,190,2013-07-15 20:00:00
10:30 PM,80.6,69.8,70,30.12,-9999.0,South,1.2,-,N/A,,Clear,190,2013-07-15 20:30:00
11:00 PM,79,69,65,30.13,12,WSW,6.7,,,,,250,2013-07-15 21:00:00
11:00 PM,78.8,69.8,74,30.12,-9999.0,Calm,Calm,-,N/A,,Clear,0,2013-07-15 21:00:00
11:30 PM,78.8,71.6,78,30.12,-9999.0,Calm,Calm,-,N/A,,Clear,0,2013-07-15 21:30:00